OneWeb SL0356

operational
NORAD ID: 49283 Int'l Des: 2021-090 Owner: ONEWEBN Country: UK Constellation: oneweb
LEOCIRCULARPOLARONEWEB_TYPE

OneWeb SL0356について

説明を読み込み中...

リアルタイム位置

3D地球を読み込み中...

次回通過

高度履歴

Altitude vs Time

uPlot chart will show altitude changes over time

軌道要素

1 49283U 21090E 26035.42451535 -.00000008 00000-0 -50424-4 0 9992
2 49283 87.9217 300.9294 0002112 54.5211 305.6120 13.20770079212304
Epoch: Feb 4, 2026 • Age: 9 hours

現在のステータス

高度 1199.2 km
速度 7.25 km/s
衛星直下点 -44.62°S, 121.96°W
打ち上げ日 Oct 14, 2021
運用期間 4.3 years
タイプ internet

技術仕様

分類 Payload
質量 148.00 kg
乾燥質量 140.00 kg
総質量 148.00 kg
長さ 1.30 m
直径 1.00 m
スパン 5.00 m
形状 Trapezoid+2 pan
製造者 ONEWUS
バスタイプ ARROW
フェーズステータス In Orbit
所有者/国 ONEWEBN/UK

大規模コンステレーション

Loading constellations...